This demonstration page uses our WeatherBlox Daily Observations layout. Learn more.

Left ArrowRight Arrow

44.31136, -96.79839

Hourly Observations for June 29, 2019

Temp ( °F °C ) Dew Point ( °F °C ) Humidity (%) Winds ( mph kmh ) Pressure ( in mb ) Visibility ( mi km ) Precip ( " mm )
12:56 am 00:56 Clear 75 23.9 74 23.3 96 96 E 9 15 30.07 1018 10 16 0.00 0.00
1:56 am 01:56 Clear 75 23.9 74 23.3 96 96 E 12 19 30.06 1018 8 13 0.00 0.00
2:20 am 02:20 Mostly Clear with Mist and Fog 73 23 73 23 100 100 ESE 10 17 29.99 1016 6 10 0.00 0.00
2:46 am 02:46 Mostly Cloudy with Mist and Fog 73 23 73 23 100 100 ESE 9 15 29.99 1016 5 8 0.00 0.00
2:56 am 02:56 Cloudy with Mist and Fog 74 23.3 73 22.8 97 97 ESE 9 15 30.06 1018 5 8 0.00 0.00
3:56 am 03:56 Cloudy with Mist and Fog 73 22.8 73 22.8 100 100 ESE 9 15 30.06 1018 5 8 0.00 0.00
4:28 am 04:28 Partly Cloudy with Mist and Fog 72 22 72 22 100 100 SE 8 13 30.01 1016 5 8 0.00 0.00
4:56 am 04:56 Clear with Mist and Fog 72 22.2 72 22.2 100 100 SE 9 15 30.07 1018 5 8 0.00 0.00
5:17 am 05:17 Mostly Clear with Mist and Fog 72 22 72 22 100 100 ESE 7 11 30.02 1016 5 8 0.00 0.00
5:56 am 05:56 Sunny with Mist and Fog 71 21.7 71 21.7 100 100 SE 7 11 30.08 1019 4 6 0.00 0.00
6:56 am 06:56 Sunny with Mist and Fog 72 22.2 72 22.2 100 100 ESE 12 19 30.07 1018 6 10 0.00 0.00
7:56 am 07:56 Sunny 75 23.9 73 22.8 94 94 SE 12 19 30.06 1018 10 16 0.00 0.00
8:56 am 08:56 Sunny 78 25.6 74 23.3 87 87 SE 13 20 30.05 1018 10 16 0.00 0.00
9:56 am 09:56 Sunny 81 27.2 74 23.3 79 79 SSE 18 30 30.05 1018 10 16 0.00 0.00
10:56 am 10:56 Sunny 84 28.9 75 23.9 74 74 S 17 28 30.03 1017 10 16 0.00 0.00
11:56 am 11:56 Sunny 85 29.4 76 24.4 75 75 SSE 14 22 30.03 1017 10 16 0.00 0.00
12:56 pm 12:56 Sunny 87 30.6 77 25 72 72 SE 17 28 30.02 1017 10 16 0.00 0.00
1:56 pm 13:56 Sunny 89 31.7 78 25.6 70 70 SSE 16 26 30.00 1016 10 16 0.00 0.00
2:56 pm 14:56 Sunny 91 32.8 78 25.6 66 66 SSE 13 20 29.98 1015 10 16 0.00 0.00
3:56 pm 15:56 Sunny 93 33.9 77 25 60 60 SSE 15 24 29.97 1015 10 16 0.00 0.00
4:56 pm 16:56 Sunny 93 33.9 75 23.9 56 56 S 13 20 29.96 1015 10 16 0.00 0.00
5:56 pm 17:56 Sunny 93 33.9 76 24.4 58 58 SE 9 15 29.97 1015 10 16 0.00 0.00
6:56 pm 18:56 Sunny 91 32.8 76 24.4 61 61 SE 12 19 29.96 1015 10 16 0.00 0.00
7:56 pm 19:56 Sunny 90 32.2 77 25 66 66 SSE 12 19 29.95 1014 10 16 0.00 0.00
8:56 pm 20:56 Sunny 86 30 76 24.4 72 72 SE 9 15 29.96 1015 10 16 0.00 0.00
9:56 pm 21:56 Clear 85 29.4 74 23.3 70 70 SSE 13 20 29.95 1014 10 16 0.00 0.00
10:56 pm 22:56 Clear 84 28.9 73 22.8 70 70 SSE 12 19 29.97 1015 10 16 0.00 0.00
11:56 pm 23:56 Clear 84 28.9 72 22.2 67 67 S 12 19 29.96 1015 10 16 0.00 0.00

Powered by AerisWeather